Flag for U.S.A. Weather past 2 weeks in Flint, Michigan, U.S.A.

Now
49 °F

Overcast.


Feels Like: 45 °F
Forecast: 43 / 49 °F
Wind: 9 mph from North

Location: Bishop International Airport

Current Time: Oct 21, 2014 at 6:04:33 AM

Latest Report: Oct 21, 2014 at 4:53 AM


Visibility: 8 mi

Pressure: 29.92 "Hg

Humidity: 84%

Dew point: 44 °F

Location of FlintLocation

Historic Weather in Flint — Graph

°F

Flint temperature yesterday

Maximum temperature yesterday: 58 °F (at 2:53 PM)
Minimum temperature yesterday: 49 °F (at 3:53 AM)
Average temperature yesterday: 53 °F

Past Weeks' High & Low Weather Summary

 TemperatureHumidityPressure
High71 °F (Oct 14, 2:53 AM)93% (Oct 15, 11:53 PM)30.29 "Hg (Oct 15, 11:53 PM)
Low31 °F (Oct 11, 6:53 AM)33% (Oct 8, 3:53 PM)29.47 "Hg (Oct 17, 2:53 PM)
Average53 °F72%29.89 "Hg
* Reported Oct 6 4:53 AM — Oct 21 4:53 AM, Flint, Weather by CustomWeather, © 2014

Note: Actual official high and low records may vary slightly from our data, if they occured in-between our weather recording intervals... More about our weather records

Advertising

Flint weather history for previous 24 hours

 ConditionsComfort  
Time TempWeatherWind HumidityBarometerVisibility
4:53 AM
Oct 21
49 °FOvercast.9 mph84%29.92 "Hg8 mi
3:53 AM49 °FMostly cloudy.7 mph80%29.91 "Hg10 mi
2:53 AM50 °FMostly cloudy.12 mph77%29.91 "Hg10 mi
1:53 AM49 °FMostly cloudy.8 mph84%29.91 "Hg10 mi
12:53 AM50 °FOvercast.6 mph80%29.90 "Hg10 mi
11:53 PM
Oct 20
50 °FMostly cloudy.5 mph80%29.90 "Hg10 mi
10:53 PM50 °FOvercast.7 mph80%29.91 "Hg10 mi
9:53 PM51 °FMostly cloudy.8 mph83%29.89 "Hg10 mi
8:53 PM54 °FOvercast.10 mph83%29.86 "Hg8 mi
7:53 PM54 °FRain. Fog.7 mph90%29.85 "Hg4 mi
6:53 PM55 °FLight rain. Mostly cloudy.7 mph80%29.82 "Hg4 mi
5:53 PM57 °FOvercast.5 mph72%29.80 "Hg10 mi
4:53 PM58 °FCloudy.5 mph70%29.79 "Hg10 mi
3:53 PM58 °FMostly cloudy.8 mph67%29.78 "Hg10 mi
3:04 PM57 °FMostly cloudy.8 mph69%29.78 "Hg10 mi
2:53 PM58 °FCloudy.8 mph67%29.78 "Hg10 mi
1:53 PM57 °FOvercast.12 mph69%29.78 "Hg10 mi
12:53 PM57 °FOvercast.10 mph69%29.80 "Hg10 mi
11:53 AM57 °FMostly cloudy.9 mph69%29.80 "Hg10 mi
10:53 AM54 °FMore clouds than sun.9 mph74%29.83 "Hg10 mi
9:53 AM52 °FPartly sunny.9 mph75%29.84 "Hg10 mi
8:53 AM50 °FPassing clouds.9 mph80%29.84 "Hg10 mi
7:53 AM50 °FOvercast.9 mph77%29.84 "Hg10 mi
6:53 AM50 °FOvercast.10 mph77%29.84 "Hg10 mi
Weather by CustomWeather, © 2014

See weather overviewHow to use our weather pages